This demonstration page uses our WeatherBlox Daily Observations layout. Learn more.

Left ArrowRight Arrow

Hourly Observations for May 23, 2015

Temp ( °F °C ) Dew Point ( °F °C ) Humidity (%) Winds ( mph kmh ) Pressure ( in mb ) Visibility ( mi km ) Precip ( " mm )
12:53 am 00:53 Clear 50 10 47 8.3 89 89 Calm 30.30 1026 10 16 0.00 0.00
1:53 am 01:53 Clear 48 8.9 46 7.8 93 93 Calm 30.30 1026 10 16 0.00 0.00
2:53 am 02:53 Clear with Mist and Fog 47 8.3 46 7.8 97 97 Calm 30.30 1026 6 10 0.00 0.00
3:53 am 03:53 Clear with Mist and Fog 47 8.3 46 7.8 97 97 Calm 30.31 1026 6 10 0.00 0.00
4:53 am 04:53 Clear 47 8.3 46 7.8 97 97 Calm 30.33 1027 8 13 0.00 0.00
5:53 am 05:53 Clear 50 10 49 9.4 96 96 Calm 30.35 1028 7 11 0.00 0.00
6:53 am 06:53 Partly Cloudy with Mist and Fog 52 11.1 50 10 93 93 Calm 30.36 1028 6 10 0.00 0.00
7:53 am 07:53 Sunny 55 12.8 52 11.1 90 90 Calm 30.38 1029 9 14 0.00 0.00
8:53 am 08:53 Sunny 60 15.6 49 9.4 67 67 ESE 5 7 30.40 1029 10 16 0.00 0.00
9:53 am 09:53 Sunny 64 17.8 50 10 60 60 Calm 30.40 1030 10 16 0.00 0.00
10:53 am 10:53 Sunny 68 20 50 10 53 53 Calm 30.41 1030 10 16 0.00 0.00
11:53 am 11:53 Sunny 72 22.2 51 10.6 48 48 Calm 30.40 1030 10 16 0.00 0.00
12:53 pm 12:53 Sunny 76 24.4 49 9.4 39 39 Calm 30.39 1029 10 16 0.00 0.00
1:53 pm 13:53 Sunny 78 25.6 46 7.8 32 32 VRB 3 6 30.37 1028 10 16 0.00 0.00
2:53 pm 14:53 Sunny 79 26.1 46 7.8 31 31 SSW 5 7 30.35 1028 10 16 0.00 0.00
3:53 pm 15:53 Sunny 80 26.7 44 6.7 28 28 VRB 3 6 30.33 1027 10 16 0.00 0.00
4:53 pm 16:53 Sunny 80 26.7 45 7.2 29 29 SW 5 7 30.31 1026 10 16 0.00 0.00
5:53 pm 17:53 Sunny 80 26.7 42 5.6 26 26 E 5 7 30.30 1026 10 16 0.00 0.00
6:53 pm 18:53 Sunny 79 26.1 44 6.7 29 29 E 6 9 30.27 1025 10 16 0.00 0.00
7:53 pm 19:53 Sunny 77 25 45 7.2 32 32 S 3 6 30.27 1025 10 16 0.00 0.00
8:53 pm 20:53 Clear 72 22.2 45 7.2 38 38 SSE 3 6 30.26 1025 10 16 0.00 0.00
9:53 pm 21:53 Clear 61 16.1 50 10 67 67 Calm 30.28 1026 10 16 0.00 0.00
10:53 pm 22:53 Clear 61 16.1 48 8.9 63 63 ESE 3 6 30.28 1026 10 16 0.00 0.00
11:53 pm 23:53 Clear 56 13.3 49 9.4 77 77 Calm 30.28 1026 10 16 0.00 0.00

Powered by AerisWeather